Tracking 19794 objects as of 21-Jul-2019
HD Live streaming from Space Station
objects crossing your sky now

FENGYUN 1C DEB

Track FENGYUN 1C DEB now!
10-day predictions


NORAD ID: 33656
Int'l Code: 1999-025DER
Perigee: 769.6 km
Apogee: 905.3 km
Inclination: 98.7 °
Period: 101.5 minutes
Semi major axis: 7208 km
RCS: 0.0162 m2 (small)
Launch date: May 10, 1999
Source: People's Republic of China (PRC)
Launch site: Taiyaun Space Center, China (TSC)

Note: This is SATELLITE DEBRIS
aabbcc
Your satellite tracking list
Your tracking list is empty




NASA's NSSDC Master Catalog

Two Line Element Set (TLE):
1 33656U 99025DER 19195.87983357  .00000078  00000-0  56547-4 0  9999
2 33656  98.6565 227.5980 0094115 325.2362  34.2688 14.18545223612791
Source of the keplerian elements: AFSPC